Flag for Brazil Weather past 2 weeks in Florianópolis, Santa Catarina, Brazil

Now
75 °F

Partly sunny.


Feels Like: 77 °F
Forecast: 73 / 77 °F
Wind: 9 mph from South

Location: Florianopolis Aeroporto

Current Time: Jan 30, 2015 at 9:03:55 AM

Latest Report: Jan 30, 2015 at 8:00 AM


Visibility: N/A

Pressure: 29.98 "Hg

Humidity: 65%

Dew point: 63 °F

Location of FlorianópolisLocation

Historic Weather in Florianópolis — Graph

°F

Florianópolis temperature yesterday

Maximum temperature yesterday: 95 °F (at 3:00 PM)
Minimum temperature yesterday: 73 °F (at 8:00 PM)
Average temperature yesterday: 81 °F

Past Weeks' High & Low Weather Summary

 TemperatureHumidityPressure
High95 °F (Jan 17, 3:00 PM)94% (Jan 15, 9:00 PM)30.12 "Hg (Jan 15, 9:00 PM)
Low68 °F (Jan 23, 4:00 AM)21% (Jan 17, 6:00 PM)29.68 "Hg (Jan 29, 3:00 PM)
Average79 °F75%29.92 "Hg
* Reported Jan 15 8:00 AM — Jan 30 8:00 AM, Florianópolis, Weather by CustomWeather, © 2014

Note: Actual official high and low records may vary slightly from our data, if they occured in-between our weather recording intervals... More about our weather records

Advertising

Florianópolis weather history for previous 24 hours

 ConditionsComfort  
Time TempWeatherWind HumidityBarometerVisibility
8:00 AM
Jan 30
75 °FPartly sunny.9 mph65%29.98 "HgN/A
7:00 AM73 °FPartly sunny.8 mph69%29.95 "HgN/A
6:00 AM73 °FPassing clouds.9 mph69%29.95 "HgN/A
5:00 AM73 °FPassing clouds.12 mph69%29.92 "HgN/A
4:00 AM73 °FPassing clouds.13 mph69%29.92 "HgN/A
3:00 AM73 °FPassing clouds.14 mph69%29.95 "HgN/A
2:00 AM73 °FPassing clouds.15 mph69%29.95 "HgN/A
1:00 AM73 °FPassing clouds.15 mph69%29.95 "HgN/A
12:00 AM73 °FPassing clouds.16 mph69%29.95 "HgN/A
11:00 PM
Jan 29
73 °FLight rain. Passing clouds.17 mph74%29.95 "HgN/A
10:00 PM75 °FPassing clouds.21 mph69%29.92 "HgN/A
9:00 PM73 °FPassing clouds.23 mph78%29.89 "HgN/A
8:00 PM73 °FScattered clouds.26 mph78%29.86 "HgN/A
7:00 PM75 °FRain. Broken clouds.26 mph83%29.80 "Hg2 mi
6:03 PM77 °FRain. Broken clouds.18 mph89%29.80 "Hg1 mi
6:00 PM77 °FLight rain. Broken clouds.20 mph89%N/A5 mi
5:00 PM82 °FScattered clouds.21 mph70%29.74 "HgN/A
4:00 PM93 °FScattered clouds.14 mph44%29.68 "HgN/A
3:00 PM95 °FPassing clouds.16 mph47%29.68 "HgN/A
2:00 PM93 °FPassing clouds.14 mph47%29.71 "HgN/A
1:00 PM93 °FPassing clouds.13 mph47%29.74 "HgN/A
12:00 PM90 °FPassing clouds.10 mph55%29.74 "HgN/A
11:00 AM86 °FPassing clouds.9 mph62%29.74 "HgN/A
10:00 AM84 °FPassing clouds.8 mph66%29.74 "HgN/A
9:00 AM82 °FPartly sunny.12 mph70%29.74 "HgN/A
Weather by CustomWeather, © 2014

See weather overviewHow to use our weather pages